Regional Weather Roundup
Issued by NWS

Home | Current Version | Previous Version | Graphics & Text | Print | Product List | Glossary On
Versions: 1 2 3 4 5 6 7 8 9 10 11 12 13 14 15 16 17 18 19 20 21 22 23 24 25 26 27 28 29 30 31 32 33 34 35 36 37 38 39 40 41 42 43 44 45 46 47 48 49 50
000
ASUS43 KDTX 230801
RWRMI
MICHIGAN HOURLY REGIONAL WEATHER ROUNDUP
NATIONAL WEATHER SERVICE DETROIT/PONTIAC MI
400 AM EDT SAT AUG 23 2014

NOTE: "FAIR" INDICATES FEW OR NO CLOUDS BELOW 12,000 FEET WITH NO
SIGNIFICANT WEATHER AND/OR OBSTRUCTION TO VISIBILITY.

MIZ047>049-052>055-059>063-066>070-074>076-081>083-230900-
SOUTHEAST LOWER MICHIGAN

CITY           SKY/WX    TMP DP  RH WIND       PRES   REMARKS
ADRIAN         CLOUDY    71  63  75 E7        30.02R
ALMA           CLEAR     61  60  96 CALM      30.05R FOG
ANN ARBOR      MOCLDY    69  61  75 NE3       30.01S
BAD AXE        FOG       62  62 100 CALM      30.05R VSB 1/2
CARO           FOG       60  59  99 CALM      30.04S VSB 1/2
DETROIT CITY   PTCLDY    69  61  75 N5        30.01S
DETROIT        CLOUDY    71  60  68 MISG      30.01S
FLINT          CLEAR     68  61  78 CALM      30.03S
GROSSE ILE     CLOUDY    70  64  83 NE5       29.99S
HILLSDALE      PTCLDY    68  68 100 CALM      30.02S FOG
HOWELL         CLOUDY    67  65  93 CALM      30.03R

CITY           SKY/WX    TMP DP  RH WIND       PRES   REMARKS
JACKSON        MOCLDY    69  66  90 CALM      30.02S
LAMBERTVILLE   CLEAR     68  63  83 CALM      30.01R
LANSING        MOCLDY    69  66  90 NE5       30.02S
LAPEER         FOG       61  60  96 CALM      30.03S VSB 1/2
MASON          CLOUDY    69  67  93 CALM      30.03R
MONROE         MOCLDY    70  64  83 CALM      29.99S
MT. CLEMENS    CLOUDY    64  64  97 N6        30.01R
PONTIAC        PTCLDY    67  60  78 NE3       30.02R
PORT HOPE        N/A     64  62  93 N3        30.02F
PORT HURON     CLOUDY    64  64 100 CALM      30.02R FOG
TRI CITIES     CLEAR     64  61  90 CALM      30.04S
TROY           CLOUDY    68  62  80 CALM      30.03S
SAGINAW HB     CLEAR     61  61 100 CALM      30.03S
$$
MIZ043>046-050>051-056>058-064>065-071>073-077>080-230900-
SOUTHWEST LOWER MICHIGAN

CITY           SKY/WX    TMP DP  RH WIND       PRES   REMARKS
BATTLE CREEK   PTCLDY    72  68  87 E7        30.01F
BENTON HARBOR  CLEAR     71  70  96 E5        29.97S FOG
BIG RAPIDS     CLEAR     61  61 100 CALM      30.04S
COLDWATER      LGT RAIN  74  72  94 E3        30.00S
FREMONT        FAIR      66  64  91 E6        30.01S
HOLLAND        CLEAR     71  67  87 E5        30.01R
GRAND RAPIDS   MOCLDY    70  69  97 NE5       30.02S
IONIA          PTSUNNY   65  64  94 CALM      30.02S
KALAMAZOO      MOCLDY    71  69  93 CALM      30.00S FOG
LUDINGTON      CLOUDY    69  65  86 E6        30.02S
MARSHALL       MOCLDY    69  69  98 CALM      30.00S FOG
MOUNT PLEASANT MOCLDY    64  63  97 NE3       30.04S FOG
MUSKEGON       CLEAR     70  65  84 E6        30.00F
SOUTH HAVEN    CLEAR     72  72 100 E5        29.98S FOG
$$
MIZ016>042-230900-
NORTHERN LOWER MICHIGAN

CITY           SKY/WX    TMP DP  RH WIND       PRES   REMARKS
ALPENA         FOG       57  57 100 CALM      30.06S VSB 1/4
BEAVER ISLAND  CLOUDY    67  65  91 E6        30.06R
BELLAIRE       CLOUDY    67  64  91 CALM      30.04S
CADILLAC       CLOUDY    64  62  93 CALM      30.06R
CHARLEVOIX     CLOUDY    70  65  85 SE3       30.08R
FRANKFORT      CLOUDY    70  64  80 CALM      30.02S
GAYLORD        CLEAR     62  60  93 CALM      30.08R
GRAYLING       CLOUDY    62  62 100 CALM      30.08S FOG
HARBOR SPRINGS CLEAR     64  62  93 CALM      30.06S
HOUGHTON LAKE  CLEAR     60  59  96 CALM      30.08R
MANISTEE       CLEAR     64  61  88 E5        30.03S
OSCODA         FOG       61  61 100 CALM      30.04S VSB 1/2
PELLSTON       CLEAR     61  60  97 CALM      30.07R FOG
ROGERS CITY    CLEAR     59  59 100 CALM      30.08R FOG
TRAVERSE CITY  MOCLDY    69  64  84 CALM      30.03R
$$
MIZ007>008-015-230900-
EASTERN UPPER MICHIGAN

CITY           SKY/WX    TMP DP  RH WIND       PRES   REMARKS
KINROSS        CLOUDY    63  61  94 NE6       30.08R VSB 1/4
MACKINAC ISLAN CLEAR     62  62 100 E3        30.07R FOG
NEWBERRY       CLOUDY    62  61  96 E3        30.07S FOG
S. S. MARIE    CLEAR     63  61  93 E3        30.07S FOG
$$
MIZ004>006-011>014-085-230900-
CENTRAL UPPER MICHIGAN

CITY           SKY/WX    TMP DP  RH WIND       PRES   REMARKS
MANISTIQUE     CLOUDY    68  64  88 E6        30.04R
ESCANABA       CLOUDY    68  63  83 NE3       30.02S
MENOMINEE      PTCLDY    66  64  94 CALM      30.00S
SAWYER-GWINN   RAIN      66  64  96 E5        30.06S
$$
MIZ001>003-009>011-084-230900-
WESTERN UPPER MICHIGAN

CITY           SKY/WX    TMP DP  RH WIND       PRES   REMARKS
IRON MOUNTAIN  CLOUDY    68  66  93 CALM      30.02F FOG
HOUGHTON       CLOUDY    63  61  93 E9        30.04F FOG
COPPER HARBOR    N/A     57  55  93 CALM      30.05F
$$

ABBREVIATIONS USED IN REMARKS
   TC - TEMPERATURE IN CELSIUS
  WCI - WIND CHILL INDEX
   HX - HEAT INDEX
  VSB - VISIBILITY




USA.gov is the U.S. government's official web portal to all federal, state and local government web resources and services.